{"data":{"norad_id":53656,"epoch":"2026-05-25T03:36:50.594112Z","epoch_age_seconds":58691,"freshness":"FRESH","line1":"1 53656U 22105J   26145.15058558 -.00000866  00000+0 -55928-4 0  9994","line2":"2 53656  97.4498  25.1281 0002039 104.1576 255.9878 15.05661327204731","mean_motion":15.05661327,"eccentricity":0.0002039,"inclination_deg":97.4498,"raan_deg":25.1281,"arg_perigee_deg":104.1576,"mean_anomaly_deg":255.9878,"bstar":-5.5928e-5,"rev_number":20473,"period_min":95.639037423454,"perigee_km":548.06386943314,"apogee_km":550.88895018166,"semimajor_km":6927.6134098074,"source":"CELESTRAK","updated_at":"2026-05-25T13:38:17.486057Z"}}